Regional Weather Roundup
Issued by NWS Albany, NY

Home | Current Version | Previous Version | Text Only | Print | Product List | Glossary On
Versions: 1 2 3 4 5 6 7 8 9 10 11 12 13 14 15 16 17 18 19 20 21 22 23 24 25 26 27
000
ASUS41 KALY 020610
RWRALY

NEW YORK STATE HOURLY WEATHER ROUNDUP
NATIONAL WEATHER SERVICE ALBANY NY
200 AM EDT MON MAY 02 2016

NOTE: "FAIR" INDICATES FEW OR NO CLOUDS BELOW 12,000 FEET WITH NO
SIGNIFICANT WEATHER AND/OR NO OBSTRUCTIONS TO VISIBILITY.

NYZ032-033-038>043-046>054-057>066-NYZ062>081-082-084-020700-
EAST


CITY           SKY/WX    TMP DP  RH WIND       PRES   REMARKS
ALBANY         DRIZZLE   44  39  82 S7        30.04F
GLENS FALLS    CLOUDY    44  40  85 CALM      30.04F FOG
POUGHKEEPSIE   CLOUDY    45  41  86 E3        30.05F
MONTGOMERY     CLOUDY    44  42  93 CALM      30.05F FOG
WHITE PLAINS   DRIZZLE   43  41  93 NE3       30.03F FOG
ISLIP          CLOUDY    46  44  93 NE8       30.03F
NEW YORK CITY  CLOUDY    46  43  89 NE7       30.04F
CENTRAL PARK   CLOUDY    45  43  93 NE5       30.07F FOG
$$

NYZ005>009-017-018-044>046-055-056-020700-
CENTRAL


CITY           SKY/WX    TMP DP  RH WIND       PRES   REMARKS
FULTON         CLOUDY    49  46  90 NE3       29.97S FOG
SYRACUSE       DRIZZLE   47  47 100 CALM      29.96F FOG
ROME           LGT RAIN  45  45 100 E8        30.00S FOG
ELMIRA         CLOUDY    50  45  83 S5        29.96F
BINGHAMTON     CLOUDY    45  44  97 S7        29.97S
MONTICELLO     CLOUDY    43  43 100 CALM      30.03F
$$

NYZ026>034-041>043-087-020700-
NORTH


CITY           SKY/WX    TMP DP  RH WIND       PRES   REMARKS
WATERTOWN      CLOUDY    45  44  97 NE5       29.97F
FORT DRUM      NOT AVBL
MASSENA        CLOUDY    45  43  93 CALM      30.04R FOG
SARANAC LAKE   CLOUDY    40  38  93 CALM      29.97F
PLATTSBURGH    CLOUDY    44  42  93 SE12      30.02F
$$

NYZ001>004-010>016-019>021-085-020700-
WEST


CITY           SKY/WX    TMP DP  RH WIND       PRES   REMARKS
NIAGARA FALLS  CLOUDY    47  43  86 E7        29.98F
BUFFALO        CLOUDY    44  43  96 NE8       29.99S
DUNKIRK        CLOUDY    45  44  97 NE7       29.97F
JAMESTOWN      CLOUDY    45  41  87 N5        29.94S VSB 1/2
WELLSVILLE     FOG       50  49  96 CALM      29.95F VSB<1/4
ROCHESTER      DRIZZLE   45  44  97 N6        30.00F FOG
PENN YAN       CLOUDY    48  46  93 N6        29.97S FOG
$$

             KEY
       WCI = WIND CHILL INDEX
       VSB = VISIBILITY
       HX  = HEAT INDEX
$$




USA.gov is the U.S. government's official web portal to all federal, state and local government web resources and services.